Weather History for Mosinee, WI

Change the Weather History Date:

Saturday, May 18, 2013

  Actual Average Record
Temperature  
Mean Temperature 62 °F -  
Max Temperature 73 °F 62 °F 84 °F (1998)
Min Temperature 50 °F 40 °F 28 °F (2002)
Degree Days  
Heating Degree Days 4    
Growing Degree Days 12 (Base 50)    
Moisture  
Dew Point 54 °F    
Average Humidity 87    
Maximum Humidity 94    
Minimum Humidity 69    
Precipitation  
Precipitation 0.00 in - - ()
Sea Level Pressure  
Sea Level Pressure 30.04 in    
Wind  
Wind Speed 7 mph (ESE)    
Max Wind Speed 10 mph    
Max Gust Speed 18 mph    
Visibility 10 miles    
Events Rain    
Averages and records for this station are not official NWS values.
T = Trace of Precipitation, MM = Missing Value Source: NWS Daily Summary

Daily Weather History Graph

Daily Weather History Graph

Search for Another Location

Airport:

Trip Planner

Search our weather history database for the weather conditions in past years. The results will help you decide how hot, cold, wet, or windy it might be!

Date:

Astronomy

May. 18, 2013 Rise Set
Actual Time 5:26 AM CDT 8:24 PM CDT
Civil Twilight 4:52 AM CDT 8:58 PM CDT
Nautical Twilight 4:08 AM CDT 9:42 PM CDT
Astronomical Twilight 3:16 AM CDT 10:35 PM CDT
Moon 1:10 PM CDT (5/18) 1:37 AM CDT (5/18)
Length of Visible Light 16h 06m
Length of Day
14h 57m
First Quarter, 55% of the Moon is Illuminated
May 18
First Quarter
May 24
Full
May 31
Last Quarter
Jun 8
New
Jun 16
First Quarter

Hourly Weather History & Observations

Time (CDT) Temp. Dew Point Humidity Pressure Visibility Wind Dir Wind Speed Gust Speed Precip Events Conditions
12:15 AM 50.0 °F 48.2 °F 94% 30.10 in 10.0 mi East 8.1 mph - N/A   Overcast
12:35 AM 50.0 °F 46.4 °F 87% 30.10 in 10.0 mi East 6.9 mph - N/A   Overcast
12:55 AM 50.0 °F 46.4 °F 87% 30.10 in 10.0 mi East 8.1 mph - N/A   Overcast
1:15 AM 50.0 °F 48.2 °F 94% 30.10 in 10.0 mi East 5.8 mph - N/A Rain Rain
1:35 AM 50.0 °F 48.2 °F 94% 30.09 in 10.0 mi ESE 9.2 mph - N/A   Mostly Cloudy
1:55 AM 50.0 °F 48.2 °F 94% 30.09 in 10.0 mi ESE 5.8 mph - N/A   Mostly Cloudy
2:15 AM 50.0 °F 48.2 °F 94% 30.09 in 10.0 mi East 4.6 mph - N/A   Overcast
2:35 AM 50.0 °F 48.2 °F 94% 30.09 in 10.0 mi East 4.6 mph - N/A   Overcast
2:55 AM 50.0 °F 48.2 °F 94% 30.09 in 10.0 mi East 5.8 mph - N/A   Overcast
3:15 AM 50.0 °F 48.2 °F 94% 30.09 in 10.0 mi East 5.8 mph - N/A   Mostly Cloudy
3:35 AM 50.0 °F 48.2 °F 94% 30.08 in 10.0 mi East 6.9 mph - N/A   Scattered Clouds
3:55 AM 50.0 °F 48.2 °F 94% 30.08 in 10.0 mi East 5.8 mph - N/A   Mostly Cloudy
4:15 AM 50.0 °F 48.2 °F 94% 30.07 in 10.0 mi East 8.1 mph - N/A   Overcast
4:35 AM 50.0 °F 46.4 °F 87% 30.07 in 10.0 mi East 8.1 mph - N/A   Overcast
4:55 AM 50.0 °F 46.4 °F 87% 30.07 in 10.0 mi East 8.1 mph - N/A   Overcast
5:15 AM 50.0 °F 46.4 °F 87% 30.07 in 10.0 mi East 9.2 mph - N/A   Mostly Cloudy
5:35 AM 50.0 °F 46.4 °F 87% 30.07 in 10.0 mi East 8.1 mph - N/A   Mostly Cloudy
5:52 AM 50.0 °F 48.2 °F 94% 30.07 in 10.0 mi East 5.8 mph - N/A   Mostly Cloudy
6:45 AM 51.8 °F 48.2 °F 88% 30.08 in 10.0 mi East 8.1 mph - N/A   Scattered Clouds
7:45 AM 51.8 °F 48.2 °F 88% 30.08 in 10.0 mi ESE 8.1 mph - N/A   Clear
8:45 AM 55.4 °F 50.0 °F 82% 30.07 in 10.0 mi ESE 8.1 mph - N/A   Clear
9:45 AM 59.0 °F 53.6 °F 82% 30.07 in 10.0 mi SE 6.9 mph - N/A   Clear
10:45 AM 62.6 °F 55.4 °F 77% 30.07 in 10.0 mi SSE 8.1 mph - N/A   Overcast
11:45 AM 64.4 °F 59.0 °F 83% 30.06 in 10.0 mi SSE 9.2 mph - N/A   Overcast
12:45 PM 64.4 °F 59.0 °F 83% 30.06 in 7.0 mi ESE 8.1 mph - N/A   Mostly Cloudy
2:45 PM 69.8 °F 62.6 °F 78% 30.01 in 7.0 mi South 9.2 mph - N/A   Mostly Cloudy
3:55 PM 71.6 °F 62.6 °F 73% 29.97 in 7.0 mi SSE 10.4 mph 18.4 mph N/A   Clear
4:45 PM 71.6 °F 62.6 °F 73% 29.97 in 10.0 mi SSE 9.2 mph - N/A   Scattered Clouds
5:45 PM 73.4 °F 62.6 °F 69% 29.97 in 10.0 mi ESE 10.4 mph 17.3 mph N/A   Scattered Clouds
6:45 PM 71.6 °F 62.6 °F 73% 29.96 in 10.0 mi SSE 8.1 mph - N/A   Scattered Clouds
7:45 PM 69.8 °F 62.6 °F 78% 29.96 in 10.0 mi SE 4.6 mph - N/A   Clear
8:45 PM 68.0 °F 62.6 °F 83% 29.97 in 10.0 mi ESE 4.6 mph - N/A   Clear
9:45 PM 66.2 °F 62.6 °F 88% 29.97 in 10.0 mi ESE 4.6 mph - N/A   Clear
10:15 PM 64.4 °F 60.8 °F 88% 29.96 in 10.0 mi ESE 4.6 mph - N/A   Clear
10:35 PM 62.6 °F 60.8 °F 94% 29.96 in 10.0 mi ESE 4.6 mph - N/A   Clear
10:55 PM 62.6 °F 60.8 °F 94% 29.95 in 7.0 mi ESE 6.9 mph - N/A   Clear
11:15 PM 62.6 °F 60.8 °F 94% 29.94 in 10.0 mi SE 6.9 mph - N/A   Clear
11:35 PM 62.6 °F 60.8 °F 94% 29.94 in 7.0 mi SE 6.9 mph - N/A   Clear
11:55 PM 62.6 °F 60.8 °F 94% 29.94 in 7.0 mi SE 6.9 mph - N/A   Clear